Time,TemperatureF,DewpointF,PressureIn,WindDirection,WindDirectionDegrees,WindSpeedMPH,WindSpeedGustMPH,Humidity,HourlyPrecipIn,Conditions,Clouds,dailyrainin,SolarRadiationWatts/m^2,SoftwareType,DateUTC
2013-03-09 00:01:00,36.0,35.0,-100.00,SSE,168,0.0,0.0,96,0.00,,,0.00,1.000000,,2013-03-09 08:01:00,
2013-03-09 00:32:00,34.0,33.0,-100.00,ENE,70,0.0,0.0,97,0.00,,,0.00,1.000000,,2013-03-09 08:32:00,
2013-03-09 00:42:00,34.0,33.0,-100.00,ENE,70,0.0,0.0,97,0.00,,,0.00,1.000000,,2013-03-09 08:42:00,
2013-03-09 00:52:00,34.0,33.0,-100.00,ENE,70,0.0,0.0,97,0.00,,,0.00,1.000000,,2013-03-09 08:52:00,
2013-03-09 01:01:00,34.0,33.0,-100.00,ENE,70,0.0,0.0,97,0.00,,,0.00,1.000000,,2013-03-09 09:01:00,
2013-03-09 01:32:00,33.0,32.0,-100.00,NE,53,0.0,2.0,97,0.00,,,0.00,1.000000,,2013-03-09 09:32:00,
2013-03-09 01:42:00,33.0,32.0,-100.00,NE,53,0.0,2.0,97,0.00,,,0.00,1.000000,,2013-03-09 09:42:00,
2013-03-09 01:52:00,33.0,32.0,-100.00,NE,53,0.0,2.0,97,0.00,,,0.00,1.000000,,2013-03-09 09:52:00,
2013-03-09 02:01:00,33.0,32.0,-100.00,NE,53,0.0,2.0,97,0.00,,,0.00,1.000000,,2013-03-09 10:01:00,
2013-03-09 02:32:00,33.0,32.0,-100.00,ENE,63,0.0,0.0,98,0.00,,,0.00,1.000000,,2013-03-09 10:32:00,
2013-03-09 02:42:00,33.0,32.0,-100.00,ENE,63,0.0,0.0,98,0.00,,,0.00,1.000000,,2013-03-09 10:42:00,
2013-03-09 02:52:00,33.0,32.0,-100.00,ENE,63,0.0,0.0,98,0.00,,,0.00,1.000000,,2013-03-09 10:52:00,
2013-03-09 03:01:00,33.0,32.0,-100.00,ENE,63,0.0,0.0,98,0.00,,,0.00,1.000000,,2013-03-09 11:01:00,
2013-03-09 03:32:00,32.0,32.0,-100.00,SSE,148,1.0,1.0,98,0.00,,,0.00,1.000000,,2013-03-09 11:32:00,
2013-03-09 03:42:00,32.0,32.0,-100.00,SSE,148,1.0,1.0,98,0.00,,,0.00,1.000000,,2013-03-09 11:42:00,
2013-03-09 03:52:00,32.0,32.0,-100.00,SSE,148,1.0,1.0,98,0.00,,,0.00,1.000000,,2013-03-09 11:52:00,
2013-03-09 04:01:00,32.0,32.0,-100.00,SSE,148,1.0,1.0,98,0.00,,,0.00,1.000000,,2013-03-09 12:01:00,
2013-03-09 04:32:00,32.0,32.0,-100.00,NE,48,0.0,0.0,98,0.00,,,0.00,1.000000,,2013-03-09 12:32:00,
2013-03-09 04:42:00,32.0,32.0,-100.00,NE,48,0.0,0.0,98,0.00,,,0.00,1.000000,,2013-03-09 12:42:00,
2013-03-09 04:52:00,32.0,32.0,-100.00,NE,48,0.0,0.0,98,0.00,,,0.00,1.000000,,2013-03-09 12:52:00,
2013-03-09 05:02:00,32.0,32.0,-100.00,NE,48,0.0,0.0,98,0.00,,,0.00,1.000000,,2013-03-09 13:02:00,
2013-03-09 05:32:00,31.0,31.0,-100.00,ENE,58,0.0,0.0,98,0.00,,,-99.99,1.000000,,2013-03-09 13:32:00,
2013-03-09 05:42:00,31.0,31.0,-100.00,ENE,58,0.0,0.0,98,0.00,,,-99.99,1.000000,,2013-03-09 13:42:00,
2013-03-09 05:52:00,31.0,31.0,-100.00,ENE,58,0.0,0.0,98,0.00,,,-99.99,1.000000,,2013-03-09 13:52:00,
2013-03-09 06:01:00,31.0,31.0,-100.00,ENE,58,0.0,0.0,98,0.00,,,-99.99,1.000000,,2013-03-09 14:01:00,
2013-03-09 06:32:00,31.0,31.0,-100.00,SSW,197,0.0,0.0,98,0.00,,,0.00,1.000000,,2013-03-09 14:32:00,
2013-03-09 06:42:00,31.0,31.0,-100.00,SSW,197,0.0,0.0,98,0.00,,,0.00,1.000000,,2013-03-09 14:42:00,
2013-03-09 06:52:00,31.0,31.0,-100.00,SSW,197,0.0,0.0,98,0.00,,,0.00,1.000000,,2013-03-09 14:52:00,
2013-03-09 07:01:00,31.0,31.0,-100.00,SSW,197,0.0,0.0,98,0.00,,,0.00,1.000000,,2013-03-09 15:01:00,
2013-03-09 07:32:00,31.0,31.0,-100.00,WSW,256,1.0,3.0,98,0.00,,,0.00,5.000000,,2013-03-09 15:32:00,
2013-03-09 07:42:00,31.0,31.0,-100.00,WSW,256,1.0,3.0,98,0.00,,,0.00,5.000000,,2013-03-09 15:42:00,
2013-03-09 07:52:00,31.0,31.0,-100.00,WSW,256,1.0,3.0,98,0.00,,,0.00,5.000000,,2013-03-09 15:52:00,
2013-03-09 08:01:00,31.0,31.0,-100.00,WSW,256,1.0,3.0,98,0.00,,,0.00,5.000000,,2013-03-09 16:01:00,
2013-03-09 08:32:00,31.0,31.0,-100.00,SSW,195,1.0,3.0,98,0.00,,,0.00,19.000000,,2013-03-09 16:32:00,
2013-03-09 08:42:00,31.0,31.0,-100.00,SSW,195,1.0,3.0,98,0.00,,,0.00,19.000000,,2013-03-09 16:42:00,
2013-03-09 08:52:00,31.0,31.0,-100.00,SSW,195,1.0,3.0,98,0.00,,,0.00,19.000000,,2013-03-09 16:52:00,
2013-03-09 09:01:00,31.0,31.0,-100.00,SSW,195,1.0,3.0,98,0.00,,,0.00,19.000000,,2013-03-09 17:01:00,
2013-03-09 09:32:00,38.0,37.0,-100.00,SSW,213,2.0,4.0,97,0.00,,,0.00,237.000000,,2013-03-09 17:32:00,
2013-03-09 09:42:00,38.0,37.0,-100.00,SSW,213,2.0,4.0,97,0.00,,,0.00,237.000000,,2013-03-09 17:42:00,
2013-03-09 09:52:00,38.0,37.0,-100.00,SSW,213,2.0,4.0,97,0.00,,,0.00,237.000000,,2013-03-09 17:52:00,
2013-03-09 10:01:00,38.0,37.0,-100.00,SSW,213,2.0,4.0,97,0.00,,,0.00,237.000000,,2013-03-09 18:01:00,
2013-03-09 10:32:00,45.0,37.0,-100.00,SW,231,6.0,12.0,74,0.00,,,0.00,453.000000,,2013-03-09 18:32:00,
2013-03-09 10:42:00,45.0,37.0,-100.00,SW,231,6.0,12.0,74,0.00,,,0.00,453.000000,,2013-03-09 18:42:00,
2013-03-09 10:52:00,45.0,37.0,-100.00,SW,231,6.0,12.0,74,0.00,,,0.00,453.000000,,2013-03-09 18:52:00,
2013-03-09 11:01:00,45.0,37.0,-100.00,SW,231,6.0,12.0,74,0.00,,,0.00,453.000000,,2013-03-09 19:01:00,
2013-03-09 11:32:00,52.0,38.0,-100.00,WSW,237,6.0,14.0,58,0.00,,,0.00,585.000000,,2013-03-09 19:32:00,
2013-03-09 11:42:00,52.0,38.0,-100.00,WSW,237,6.0,14.0,58,0.00,,,0.00,585.000000,,2013-03-09 19:42:00,
2013-03-09 11:52:00,52.0,38.0,-100.00,WSW,237,6.0,14.0,58,0.00,,,0.00,585.000000,,2013-03-09 19:52:00,
2013-03-09 12:01:00,52.0,38.0,-100.00,WSW,237,6.0,14.0,58,0.00,,,0.00,585.000000,,2013-03-09 20:01:00,
2013-03-09 12:32:00,55.0,37.0,-100.00,WSW,237,7.0,16.0,51,0.00,,,0.00,667.000000,,2013-03-09 20:32:00,
2013-03-09 12:42:00,55.0,37.0,-100.00,WSW,237,7.0,16.0,51,0.00,,,0.00,667.000000,,2013-03-09 20:42:00,
2013-03-09 12:52:00,55.0,37.0,-100.00,WSW,237,7.0,16.0,51,0.00,,,0.00,667.000000,,2013-03-09 20:52:00,
2013-03-09 13:01:00,55.0,37.0,-100.00,WSW,237,7.0,16.0,51,0.00,,,0.00,667.000000,,2013-03-09 21:01:00,
2013-03-09 13:32:00,56.0,36.0,-100.00,WSW,243,8.0,19.0,46,0.00,,,0.00,668.000000,,2013-03-09 21:32:00,
2013-03-09 13:42:00,56.0,36.0,-100.00,WSW,243,8.0,19.0,46,0.00,,,0.00,668.000000,,2013-03-09 21:42:00,
2013-03-09 13:52:00,56.0,36.0,-100.00,WSW,243,8.0,19.0,46,0.00,,,0.00,668.000000,,2013-03-09 21:52:00,
2013-03-09 14:01:00,56.0,36.0,-100.00,WSW,243,8.0,19.0,46,0.00,,,0.00,668.000000,,2013-03-09 22:01:00,
2013-03-09 14:32:00,57.0,33.0,-100.00,SW,224,8.0,17.0,40,0.00,,,0.00,618.000000,,2013-03-09 22:32:00,
2013-03-09 14:42:00,57.0,33.0,-100.00,SW,224,8.0,17.0,40,0.00,,,0.00,618.000000,,2013-03-09 22:42:00,
2013-03-09 14:52:00,57.0,33.0,-100.00,SW,224,8.0,17.0,40,0.00,,,0.00,618.000000,,2013-03-09 22:52:00,
2013-03-09 15:01:00,57.0,33.0,-100.00,SW,224,8.0,17.0,40,0.00,,,0.00,618.000000,,2013-03-09 23:01:00,
2013-03-09 15:32:00,59.0,28.0,-100.00,West,263,7.0,16.0,31,0.00,,,0.00,517.000000,,2013-03-09 23:32:00,
2013-03-09 15:42:00,59.0,28.0,-100.00,West,263,7.0,16.0,31,0.00,,,0.00,517.000000,,2013-03-09 23:42:00,
2013-03-09 15:52:00,59.0,28.0,-100.00,West,263,7.0,16.0,31,0.00,,,0.00,517.000000,,2013-03-09 23:52:00,
2013-03-09 16:01:00,59.0,28.0,-100.00,West,263,7.0,16.0,31,0.00,,,0.00,517.000000,,2013-03-10 00:01:00,
2013-03-09 16:32:00,59.0,29.0,-100.00,WSW,251,6.0,12.0,32,0.00,,,0.00,373.000000,,2013-03-10 00:32:00,
2013-03-09 16:43:00,59.0,29.0,-100.00,WSW,251,6.0,12.0,32,0.00,,,0.00,373.000000,,2013-03-10 00:43:00,
2013-03-09 16:52:00,59.0,29.0,-100.00,WSW,251,6.0,12.0,32,0.00,,,0.00,373.000000,,2013-03-10 00:52:00,
2013-03-09 17:01:00,59.0,29.0,-100.00,WSW,251,6.0,12.0,32,0.00,,,0.00,373.000000,,2013-03-10 01:01:00,
2013-03-09 17:32:00,56.0,31.0,-100.00,SW,230,4.0,12.0,39,0.00,,,-99.99,206.000000,,2013-03-10 01:32:00,
2013-03-09 17:42:00,56.0,31.0,-100.00,SW,230,4.0,12.0,39,0.00,,,-99.99,206.000000,,2013-03-10 01:42:00,
2013-03-09 17:52:00,56.0,31.0,-100.00,SW,230,4.0,12.0,39,0.00,,,-99.99,206.000000,,2013-03-10 01:52:00,
2013-03-09 18:01:00,56.0,31.0,-100.00,SW,230,4.0,12.0,39,0.00,,,-99.99,206.000000,,2013-03-10 02:01:00,
2013-03-09 18:32:00,48.0,36.0,-100.00,SSW,198,3.0,7.0,63,0.00,,,-99.99,28.000000,,2013-03-10 02:32:00,
2013-03-09 18:42:00,48.0,36.0,-100.00,SSW,198,3.0,7.0,63,0.00,,,-99.99,28.000000,,2013-03-10 02:42:00,
2013-03-09 18:52:00,48.0,36.0,-100.00,SSW,198,3.0,7.0,63,0.00,,,-99.99,28.000000,,2013-03-10 02:52:00,
2013-03-09 19:01:00,48.0,36.0,-100.00,SSW,198,3.0,7.0,63,0.00,,,-99.99,28.000000,,2013-03-10 03:01:00,
2013-03-09 19:32:00,43.0,37.0,-100.00,ENE,70,3.0,5.0,78,0.00,,,0.00,1.000000,,2013-03-10 03:32:00,
2013-03-09 19:42:00,43.0,37.0,-100.00,ENE,70,3.0,5.0,78,0.00,,,0.00,1.000000,,2013-03-10 03:42:00,
2013-03-09 19:52:00,43.0,37.0,-100.00,ENE,70,3.0,5.0,78,0.00,,,0.00,1.000000,,2013-03-10 03:52:00,
2013-03-09 20:01:00,43.0,37.0,-100.00,ENE,70,3.0,5.0,78,0.00,,,0.00,1.000000,,2013-03-10 04:01:00,
2013-03-09 20:32:00,41.0,37.0,-100.00,East,81,1.0,4.0,84,0.00,,,0.00,1.000000,,2013-03-10 04:32:00,
2013-03-09 20:42:00,41.0,37.0,-100.00,East,81,1.0,4.0,84,0.00,,,0.00,1.000000,,2013-03-10 04:42:00,
2013-03-09 20:52:00,41.0,37.0,-100.00,East,81,1.0,4.0,84,0.00,,,0.00,1.000000,,2013-03-10 04:52:00,
2013-03-09 21:01:00,41.0,37.0,-100.00,East,81,1.0,4.0,84,0.00,,,0.00,1.000000,,2013-03-10 05:01:00,
2013-03-09 21:32:00,39.0,35.0,-100.00,East,79,2.0,4.0,85,0.00,,,0.00,1.000000,,2013-03-10 05:32:00,
2013-03-09 21:42:00,39.0,35.0,-100.00,East,79,2.0,4.0,85,0.00,,,0.00,1.000000,,2013-03-10 05:42:00,
2013-03-09 21:52:00,39.0,35.0,-100.00,East,79,2.0,4.0,85,0.00,,,0.00,1.000000,,2013-03-10 05:52:00,
2013-03-09 22:01:00,39.0,35.0,-100.00,East,79,2.0,4.0,85,0.00,,,0.00,1.000000,,2013-03-10 06:01:00,
2013-03-09 22:32:00,37.0,35.0,-100.00,SE,129,0.0,2.0,91,0.00,,,0.00,1.000000,,2013-03-10 06:32:00,
2013-03-09 22:42:00,37.0,35.0,-100.00,SE,129,0.0,2.0,91,0.00,,,0.00,1.000000,,2013-03-10 06:42:00,
2013-03-09 22:52:00,37.0,35.0,-100.00,SE,129,0.0,2.0,91,0.00,,,0.00,1.000000,,2013-03-10 06:52:00,
2013-03-09 23:01:00,37.0,35.0,-100.00,SE,129,0.0,2.0,91,0.00,,,0.00,1.000000,,2013-03-10 07:01:00,
2013-03-09 23:32:00,37.0,35.0,-100.00,ENE,62,1.0,1.0,91,0.00,,,0.00,1.000000,,2013-03-10 07:32:00,
2013-03-09 23:42:00,37.0,35.0,-100.00,ENE,62,1.0,1.0,91,0.00,,,0.00,1.000000,,2013-03-10 07:42:00,
2013-03-09 23:52:00,37.0,35.0,-100.00,ENE,62,1.0,1.0,91,0.00,,,0.00,1.000000,,2013-03-10 07:52:00,